FLOCK 3P-65 (42028 NORAD) Tracking and Keplerian Element Data

This shows tracking and keplerian element data for the satellite.

Feedback or suggestion? Click here.




ElementValue
Catalog42028
NameFLOCK 3P-65
Epoch Orbit32637
Epoch Day359.14494047
Epoch Year2022
RAAN65.8051
Inclination97.244
Eccentricity0.0006016
Argument of Perigee287.9341
Mean Anonmoly72.1265
Mean Motion15.70742501
Decay Rate0.00359295
L11 42028U 17008CJ 22359.14494047 .00359295 00000+0 27861-2 0 9994
L22 42028 97.2440 65.8051 0006016 287.9341 72.1265 15.70742501326372



Live tracking and technical data element details for FLOCK 3P-65 (NORAD 42028). FLOCK 3P-65 can be tracked NOW for your location showing map with azimuth and elevation plus other details from your city location.







IsCatalogInMostPopularTable: catalog: 42028, numindb: 651
Update: records affected: 1



GetName: 42028 FLOCK 3P-65

Hit Count: updated at: Thu, 21 May 2026 11:14:12 GMT